Regional Weather Roundup
Issued by NWS

Home | Current Version | Previous Version | Text Only | Print | Product List | Glossary On
Versions: 1 2 3 4 5 6 7 8 9 10 11 12 13 14 15 16 17 18 19 20 21 22 23 24 25 26 27 28 29 30 31 32 33 34 35 36 37 38 39 40 41 42 43 44 45 46 47 48 49 50
000
ASUS44 KOUN 100300
RWROK

WEATHER ROUNDUP FOR OKLAHOMA
NATIONAL WEATHER SERVICE NORMAN OK
900 PM CST TUE FEB 09 2016

NOTE: "FAIR" INDICATES FEW OR NO CLOUDS BELOW 12,000 FEET WITH NO
      SIGNIFICANT WEATHER AND/OR OBSTRUCTIONS TO VISIBILITY.

OKZ001>007-009>012-014-015-017-100400-
NORTHWEST OKLAHOMA AND THE PANHANDLE

CITY           SKY/WX    TMP DP  RH WIND       PRES   REMARKS
GAGE           CLEAR     31  21  66 S6        30.28R WCI  25
GUYMON         CLEAR     42  25  50 W10       30.28S
ENID/WOODRING  PTCLDY    34  21  60 N6        30.29F WCI  29
$$

OKZ016-021>023-033>039-044-045-100400-
SOUTHWEST OKLAHOMA

CITY           SKY/WX    TMP DP  RH WIND       PRES   REMARKS
LAWTON/REGL    CLEAR     40  23  50 NE3       30.31R
LAWTON/FT SILL CLEAR     40  24  51 NE5       30.29R
CLINTON        CLEAR     38  23  55 E7        30.32R WCI  33
HOBART         CLEAR     36  27  69 E12       30.30R WCI  28
ALTUS AFB      CLEAR     40  27  59 E8        30.29R WCI  34
$$

OKZ018>020-024>031-100400-
CENTRAL OKLAHOMA

CITY           SKY/WX    TMP DP  RH WIND       PRES   REMARKS
OKLAHOMA CITY  PTCLDY    39  19  44 N6        30.30S WCI  35
OKC/WILEY POST PTCLDY    38  19  46 N5        30.31S WCI  34
OKC/TINKER AFB MOCLDY    38  18  44 N8        30.29S WCI  32
STILLWATER     CLOUDY    39  21  48 N7        30.31S WCI  34
GUTHRIE        CLOUDY    39  19  44 NE5       30.30F
$$

OKZ008-013-054>072-100400-
NORTHEAST OKLAHOMA

CITY           SKY/WX    TMP DP  RH WIND       PRES   REMARKS
TULSA          MOCLDY    35  17  47 N14       30.32R WCI  26
TULSA/JONES    CLEAR     38  16  40 N13       30.32R WCI  30
PONCA CITY     CLOUDY    34  18  52 N9        30.32S WCI  27
BARTLESVILLE   CLEAR     30  12  47 N6        30.35R WCI  24
MUSKOGEE       CLEAR     35  15  44 N13       30.32R WCI  26
$$

OKZ032-040>043-046>053-073>077-100400-
SOUTH CENTRAL/SOUTHEAST OKLAHOMA

CITY           SKY/WX    TMP DP  RH WIND       PRES   REMARKS
MCALESTER      PTCLDY    40  19  43 NW9       30.30R WCI  34
$$




USA.gov is the U.S. government's official web portal to all federal, state and local government web resources and services.